GFSNE_500_rhum_078.txt.gz
RH
59 59 58 44 41 40 37 32 36 26 16 20 24 25 28 30 26 29 25 20 17 14 12 11 11 12 12 13 14 14 17 33 45 93 100 100 95 99
59 58 56 49 41 34 30 37 26 17 20 25 29 38 30 29 30 27 22 18 16 14 12 14 13 14 15 16 17 17 16 15 24 47 86 98 91 95
56 51 44 39 31 34 41 26 19 22 31 30 34 30 34 33 30 26 21 18 16 14 16 18 18 18 20 20 21 23 22 21 18 18 38 70 98 100
56 46 40 35 37 43 28 20 26 34 31 34 36 36 35 32 27 24 22 19 18 17 19 22 23 24 26 27 28 30 29 28 26 23 20 17 35 68
44 36 36 45 43 25 32 37 39 40 40 38 39 40 37 34 31 26 23 22 22 23 25 28 31 38 40 38 39 37 34 33 34 32 29 26 21 16
45 47 51 54 47 64 54 73 41 44 39 43 44 40 38 36 31 30 28 29 30 32 32 35 49 58 58 52 48 45 42 39 37 36 35 34 30 26
54 63 60 64 76 72 49 44 44 43 45 42 41 41 43 45 42 47 50 51 54 56 58 64 59 56 56 56 56 53 50 48 47 44 41 39 38 34
73 60 59 62 85 65 84 48 46 46 39 42 44 43 42 41 43 47 50 53 54 56 59 63 63 61 60 60 58 56 54 49 46 44 42 41 39 38
96 92 92 92 65 79 51 49 50 46 39 45 44 41 37 34 36 42 47 47 49 51 53 56 58 59 57 55 52 47 38 33 33 36 38 38 38 40
98 100 92 87 84 58 52 55 54 46 44 36 32 33 30 33 35 38 42 44 45 43 44 42 40 39 39 39 36 36 36 34 27 20 17 18 24 35
93 93 97 94 64 57 58 60 56 50 38 33 33 35 36 40 44 47 47 44 41 42 40 39 39 39 40 41 42 35 18 10 11 13 14 14 14 11
99 100 94 77 66 65 66 66 61 48 45 43 41 44 48 50 49 48 47 48 46 48 46 46 43 44 44 32 14 13 15 18 18 20 22 23 23 18
100 99 97 83 76 72 72 67 60 52 50 51 49 49 53 55 54 50 50 51 52 54 58 54 50 45 18 15 18 19 20 20 20 20 19 19 19 19
100 100 93 90 83 78 75 68 63 58 56 58 55 56 61 63 62 60 58 62 64 63 61 57 43 18 16 18 20 23 26 27 28 28 25 21 20 17
99 100 100 98 88 81 77 78 69 67 67 66 65 68 70 71 67 64 66 68 70 68 66 50 18 16 18 23 28 29 29 29 22 14 16 24 26 21
100 100 95 87 86 84 79 83 81 92 86 82 78 78 81 80 74 76 74 75 71 66 60 18 16 16 25 32 29 27 25 15 12 12 15 26 27 26
93 93 89 82 81 88 99 88 97 99 99 94 92 92 91 88 84 81 78 76 74 71 20 16 18 30 35 28 26 20 16 15 13 16 22 29 40 55
100 100 100 100 100 100 90 91 98 100 100 94 93 93 93 94 93 87 80 80 81 28 16 22 36 35 26 26 20 17 18 18 15 17 20 36 87 86
100 100 100 100 100 100 100 100 100 100 96 96 95 95 94 94 95 89 85 83 25 18 23 32 32 24 26 21 17 18 18 16 20 20 26 60 86 78
100 97 96 94 96 100 100 100 100 100 100 98 99 100 97 97 95 91 89 33 21 25 35 33 26 27 26 20 18 19 17 19 30 49 58 64 69 56
100 100 100 99 100 100 100 100 100 100 100 100 100 100 100 96 94 97 51 24 28 33 39 32 30 32 25 17 18 19 33 37 53 64 72 62 42 27
100 99 100 100 100 100 100 100 100 100 100 100 100 99 98 97 100 78 45 34 34 38 41 36 37 35 21 15 16 22 71 89 76 61 38 24 20 18
100 100 100 100 100 100 100 100 100 100 100 99 98 100 100 100 100 56 37 40 41 46 43 39 38 35 15 15 16 49 90 76 37 24 24 17 15 18

GFSNE_500_rhum_081.txt.gz
RH
89 78 67 65 64 57 54 52 48 43 36 38 34 24 22 29 41 34 31 31 29 25 21 16 14 12 13 14 14 14 16 18 18 17 16 24 54 93
72 71 70 68 64 60 58 55 46 38 41 38 25 23 32 40 38 30 32 31 27 22 18 16 14 14 16 17 19 19 19 21 23 22 21 18 22 54
70 69 65 64 70 62 53 45 39 40 42 24 25 33 40 44 32 33 33 33 31 25 19 18 17 18 20 22 25 27 28 28 30 29 27 26 24 21
71 69 65 72 65 50 46 39 41 45 28 36 37 55 50 35 35 38 36 34 27 23 22 22 22 26 27 28 35 38 38 38 38 36 34 33 31 29
72 72 75 71 47 45 45 49 45 39 49 63 68 46 39 41 41 38 35 33 34 32 29 29 29 31 34 46 52 56 56 49 46 42 40 38 36 34
79 76 66 46 48 49 55 55 63 62 79 52 55 42 45 38 40 39 37 40 39 40 47 48 48 51 56 60 59 57 55 55 52 50 47 45 44 42
82 57 49 51 58 61 88 79 64 68 55 59 45 48 39 39 40 36 37 39 37 34 49 48 50 53 55 56 57 57 58 59 58 56 53 47 42 40
97 91 92 96 92 75 78 78 96 95 82 48 50 47 44 42 42 39 35 34 37 34 40 43 44 44 46 47 48 50 51 50 47 41 36 32 32 35
97 90 100 100 95 99 99 98 96 98 63 53 51 52 51 45 39 30 33 34 35 38 41 42 42 39 38 38 36 34 32 30 30 31 32 31 23 14
96 96 98 97 99 98 98 96 98 73 62 61 59 57 43 38 33 31 34 38 41 41 41 40 40 38 40 38 38 37 36 35 34 28 20 12 10 10
100 100 100 100 99 100 100 100 87 90 75 68 65 50 44 41 37 38 43 47 47 39 43 45 45 44 44 45 45 44 42 33 18 11 12 14 15 16
98 100 99 100 100 100 100 98 89 84 80 76 67 54 49 49 47 47 52 54 52 50 51 54 57 59 57 54 51 48 32 15 14 17 18 17 16 18
100 100 100 100 100 100 100 100 100 92 84 76 72 65 59 56 55 54 58 62 62 62 62 62 63 65 62 61 55 27 16 16 18 17 16 15 15 18
100 100 100 100 100 100 100 100 100 99 85 85 84 72 69 63 63 64 70 71 69 67 69 70 68 64 62 62 30 17 15 15 19 19 16 18 20 18
100 100 100 100 100 100 100 100 100 99 86 89 86 84 97 96 83 78 84 83 79 77 74 72 69 67 69 34 16 15 16 18 18 16 18 20 16 15
100 100 100 100 100 100 100 99 99 90 82 100 94 100 100 99 93 86 86 86 86 82 78 74 70 75 51 16 17 24 24 21 17 19 20 17 18 17
100 100 100 98 98 98 98 98 96 98 100 100 98 100 100 99 84 85 86 88 84 80 78 79 78 65 18 19 26 25 23 19 20 23 19 18 16 19
100 100 100 100 100 100 100 100 100 100 100 100 100 100 100 95 92 88 87 87 85 81 86 88 83 24 24 27 27 28 22 21 23 25 18 17 18 19
100 99 100 100 100 100 100 100 100 100 100 100 100 100 100 96 96 93 92 92 92 90 96 96 49 27 31 34 38 30 24 22 26 22 17 17 23 47
100 94 96 100 100 100 100 100 100 100 100 100 100 100 99 99 96 89 88 93 98 100 100 90 33 35 34 36 42 36 25 29 25 17 16 17 27 58
89 100 100 98 99 100 100 100 100 100 100 100 100 100 98 98 99 93 97 98 100 100 100 55 63 41 36 38 41 40 37 30 22 15 16 37 65 77
92 95 100 100 100 100 100 100 100 100 100 100 100 100 100 100 100 100 100 98 95 100 93 63 43 40 37 40 39 34 36 25 15 17 47 42 22 21
99 100 100 100 100 100 100 100 98 100 100 100 100 100 100 100 100 100 100 96 100 100 88 41 31 36 46 46 32 32 30 16 16 46 29 16 28 24

GFSNE_500_rhum_084.txt.gz
RH
69 76 76 84 87 77 70 70 67 61 58 56 49 43 42 43 35 25 32 48 35 30 30 29 24 19 16 14 14 15 15 16 16 18 20 21 21 21
70 74 78 84 79 69 69 65 62 64 62 50 48 42 43 38 28 33 49 43 33 31 32 32 30 20 16 16 18 18 20 21 22 22 25 27 26 25
72 72 81 83 78 75 68 65 64 66 57 48 44 44 37 31 36 50 54 36 37 34 35 29 23 21 20 20 22 24 25 29 33 34 35 36 32 31
70 75 77 71 77 80 73 71 71 64 53 47 48 52 34 43 58 57 39 40 40 36 32 31 29 28 27 26 27 29 36 45 49 50 47 43 40 38
60 64 72 73 78 77 79 75 68 56 59 58 55 54 56 82 53 43 44 40 38 36 38 36 37 38 39 39 38 37 45 58 60 55 52 51 48 48
72 77 82 88 88 81 83 85 58 70 86 62 82 76 81 56 54 46 44 41 40 35 32 31 34 34 36 39 42 44 49 54 56 55 57 60 60 57
85 96 100 100 99 87 76 60 63 72 74 95 91 88 62 73 55 48 47 46 37 36 34 30 33 34 34 34 36 39 44 48 51 53 54 52 49 43
82 92 100 98 98 98 100 94 96 96 99 98 98 97 93 71 64 51 53 51 43 34 30 32 32 32 33 37 36 34 39 39 37 35 33 32 32 32
81 78 87 96 87 97 99 98 99 96 100 100 98 98 89 77 61 53 53 43 38 34 30 34 35 32 32 34 32 32 36 36 36 36 36 36 35 33
96 96 90 100 100 100 100 100 100 100 100 99 100 100 99 81 68 56 46 45 42 38 38 40 38 33 35 38 40 39 39 40 40 41 42 39 30 17
98 95 98 100 100 100 100 100 100 100 100 100 100 100 100 84 68 58 55 51 46 48 50 46 45 43 46 46 47 47 47 47 47 48 46 25 14 14
100 100 100 100 100 100 100 100 100 100 100 100 100 100 98 88 77 67 65 63 60 57 58 58 57 58 57 54 53 51 53 52 47 47 29 16 16 16
100 99 100 100 99 100 100 100 100 100 100 100 100 99 98 94 88 80 71 68 69 68 66 69 70 69 65 64 64 58 54 52 53 37 17 15 14 16
100 99 99 100 100 100 100 100 100 100 100 100 100 99 99 94 96 84 84 87 87 82 81 82 82 78 74 70 65 58 56 60 43 19 15 15 16 17
100 100 99 95 100 100 100 100 100 100 100 100 100 98 97 90 97 99 100 100 99 98 95 90 86 85 80 76 71 60 61 56 20 15 18 18 18 18
100 97 93 97 99 100 100 100 100 100 100 100 98 98 100 100 100 99 100 100 98 91 89 88 86 81 79 81 80 76 72 33 16 18 21 21 20 19
100 98 96 98 100 100 100 100 100 100 100 99 100 100 100 100 100 100 100 100 94 88 90 87 82 80 85 88 87 85 62 20 21 24 28 28 23 20
100 93 93 100 100 100 100 96 92 94 98 100 100 99 100 100 100 100 100 100 96 91 83 81 83 85 91 94 92 87 56 29 27 32 33 30 24 20
100 94 95 99 95 94 99 100 100 100 100 100 100 100 100 100 100 100 99 95 92 91 89 87 84 84 95 95 96 79 46 48 35 40 33 29 22 22
93 91 94 90 100 100 100 100 100 100 99 98 99 98 99 100 100 100 100 100 100 97 97 91 87 88 94 99 92 46 69 51 47 37 34 26 21 23
67 72 76 95 95 86 98 100 100 100 98 100 99 98 98 100 100 100 99 100 99 98 100 90 84 88 97 100 78 62 56 52 38 32 34 22 24 19
85 87 86 99 100 100 92 94 100 100 100 100 100 100 100 100 100 100 100 100 100 100 100 100 97 94 96 99 96 47 45 36 33 35 24 24 23 16
62 60 58 64 78 92 98 99 99 99 96 90 78 70 74 94 100 100 100 100 100 100 100 100 100 100 100 95 59 48 39 48 43 26 27 23 17 20

GFSNE_500_rhum_087.txt.gz
RH
74 76 71 72 70 68 73 78 80 79 71 67 64 63 62 59 51 49 45 44 33 32 50 38 31 30 28 30 23 16 14 15 14 16 16 17 20 34
75 69 72 70 73 73 72 68 81 82 77 70 67 66 64 57 52 47 45 35 35 41 58 34 32 33 33 23 20 17 17 18 18 20 21 22 23 37
78 78 80 74 62 59 56 68 79 78 75 75 73 72 70 57 53 56 63 41 42 73 40 39 36 33 26 26 22 22 22 23 24 26 32 34 36 40
67 62 67 59 54 53 52 56 66 78 78 80 79 73 66 62 82 62 63 54 80 45 43 39 38 32 33 32 33 32 31 30 31 36 43 51 54 52
50 48 42 53 56 45 54 74 81 94 88 82 78 60 80 78 93 74 72 91 51 46 42 40 39 39 34 37 40 43 48 50 53 53 54 52 52 52
33 36 42 41 42 54 80 99 100 95 85 69 69 75 78 96 86 98 93 65 66 48 44 47 47 39 34 31 34 38 38 40 42 44 42 56 56 56
40 46 49 52 54 64 74 88 97 97 98 92 96 95 94 92 96 100 88 75 66 52 56 54 46 41 34 33 32 34 38 39 36 38 44 43 40 44
55 58 60 64 71 80 86 93 98 99 99 100 100 98 99 98 99 100 99 95 79 65 65 57 47 40 32 33 34 32 34 34 31 31 34 33 33 32
66 68 74 84 94 98 100 100 100 100 99 100 100 100 95 100 100 98 98 98 82 70 62 52 44 41 36 37 35 29 32 35 35 36 38 39 38 39
67 71 76 86 92 98 100 100 100 100 100 95 95 100 99 100 100 100 100 98 80 56 49 49 50 45 44 44 36 35 37 39 41 44 46 46 48 49
75 82 95 95 93 98 99 100 100 96 100 100 100 100 100 99 99 100 100 95 71 61 59 59 58 59 60 55 50 48 50 50 48 48 50 53 51 46
80 82 88 94 99 100 100 100 100 100 100 100 100 100 100 100 100 100 100 98 80 70 72 68 67 68 68 65 64 64 60 58 60 58 56 54 51 50
82 90 96 94 98 95 99 100 100 99 100 99 100 100 100 100 100 100 100 97 91 83 76 77 76 74 72 74 72 71 69 66 64 61 57 54 51 51
90 82 91 95 95 96 100 100 100 100 100 100 100 100 100 100 100 100 100 100 99 96 96 97 94 95 91 86 87 77 76 72 68 64 61 59 59 42
94 93 97 100 100 100 100 100 100 100 99 100 100 100 100 100 100 100 99 100 100 100 100 100 100 100 97 90 83 76 73 74 69 64 66 68 66 27
100 100 98 95 99 100 100 100 100 100 100 100 100 100 100 100 100 98 99 100 100 100 100 100 100 98 92 90 84 73 70 70 68 73 74 78 61 21
100 98 98 99 100 100 100 100 100 99 97 98 99 99 100 98 90 94 96 100 100 100 100 100 100 98 98 95 91 80 76 75 76 79 81 83 65 37
100 99 97 98 98 100 100 100 100 99 98 100 97 99 100 99 100 100 100 100 100 100 100 100 100 97 96 96 92 90 83 77 80 86 89 84 60 50
100 90 92 96 98 100 100 100 100 100 100 100 100 100 95 87 85 93 97 100 100 95 97 97 95 96 100 100 94 96 87 79 85 90 84 77 56 64
100 100 99 98 95 86 94 100 99 93 100 100 100 100 100 100 99 99 100 100 100 99 100 100 97 97 100 96 100 100 84 86 86 94 93 73 74 59
100 99 89 73 72 75 78 88 100 100 100 100 100 100 100 100 100 100 100 100 100 100 100 100 98 100 100 97 99 100 98 88 85 84 90 83 67 43
98 99 98 97 89 88 92 96 100 100 100 100 100 100 100 100 100 90 77 72 72 80 99 100 100 98 100 100 100 100 100 100 91 90 87 81 53 36
99 100 95 58 48 44 35 34 34 36 36 36 35 34 35 39 41 48 56 59 68 82 98 100 100 100 100 100 100 100 100 100 100 92 91 58 31 44

GFSNE_500_rhum_090.txt.gz
RH
72 72 70 66 67 70 66 65 57 58 58 59 58 62 76 77 74 70 69 65 54 51 60 40 60 52 53 31 32 32 27 18 15 15 14 15 16 19
75 74 74 74 70 72 64 60 61 61 56 54 50 51 64 76 78 77 75 68 60 62 77 90 52 66 37 33 34 24 21 20 18 18 18 18 20 23
92 86 81 84 82 76 65 58 56 61 54 54 54 61 74 90 87 85 75 69 63 73 82 57 79 45 40 36 30 26 25 24 23 22 22 23 29 33
74 58 53 44 43 33 26 32 37 44 52 55 64 82 95 95 89 73 59 72 86 94 76 87 66 42 41 35 32 32 33 33 33 31 29 32 38 43
18 13 12 13 14 15 15 18 25 35 39 55 91 99 97 90 97 95 86 99 99 96 99 97 50 47 39 35 39 41 41 40 42 46 47 48 48 47
11 13 15 17 21 26 29 36 43 52 58 68 79 87 88 96 99 96 98 99 99 98 100 50 66 52 42 48 52 45 42 44 42 38 36 38 39 43
23 28 31 36 41 44 49 53 65 75 88 98 98 96 99 100 100 99 95 99 100 100 70 83 72 62 60 60 51 47 44 42 42 39 37 33 30 34
36 40 46 49 52 54 59 63 66 78 85 90 94 99 98 100 100 100 100 100 100 100 81 81 94 78 73 61 54 48 41 39 41 39 33 29 32 33
52 53 55 60 58 58 66 74 82 92 97 95 98 100 98 100 100 100 100 100 100 100 100 100 99 96 75 62 52 52 45 39 35 36 37 36 37 37
52 54 58 61 64 70 81 92 94 95 99 99 93 99 100 100 100 100 100 100 100 100 100 100 97 75 61 60 59 55 54 47 40 39 41 43 45 47
56 54 59 60 67 75 81 87 90 93 95 100 99 100 100 99 100 100 100 100 100 100 100 100 93 78 71 69 64 63 63 56 52 52 54 52 51 54
59 59 64 71 68 80 82 86 90 91 89 96 87 90 100 100 100 100 100 100 100 100 100 100 99 88 79 78 77 77 74 71 70 70 67 65 66 62
63 66 74 76 76 74 80 82 89 90 84 99 100 100 100 100 100 100 100 100 100 99 100 100 100 94 87 88 87 86 86 89 87 81 76 74 71 67
69 74 82 73 79 86 88 85 83 87 93 93 98 100 100 100 100 100 100 100 100 100 100 100 100 100 100 100 99 98 99 100 98 89 84 77 71 70
83 88 94 92 91 93 94 92 93 99 100 100 100 100 100 100 100 100 99 98 98 97 91 85 91 99 100 99 100 100 100 100 98 90 84 75 71 71
80 69 82 92 94 96 94 99 100 100 100 100 100 100 100 100 100 100 100 99 100 100 98 96 93 98 97 98 100 100 100 100 96 88 81 78 79 83
70 74 88 92 100 100 95 96 98 98 95 98 98 96 97 99 100 100 100 100 99 99 99 100 99 99 100 100 100 96 98 98 92 86 83 84 77 84
90 100 98 99 100 100 100 100 100 98 96 100 93 94 100 100 100 100 93 90 88 85 86 88 86 88 91 95 97 95 93 87 83 83 86 87 85 79
100 92 96 99 100 100 100 100 100 100 100 100 100 93 96 100 100 100 100 100 99 90 90 92 95 95 100 100 99 100 98 85 85 88 80 84 90 85
100 100 93 87 100 100 100 100 99 82 77 96 100 100 100 100 100 100 100 100 100 100 100 100 100 97 100 100 100 100 93 91 92 97 84 80 89 98
100 100 100 100 100 100 100 93 86 88 88 90 92 95 100 100 100 100 100 100 100 100 100 98 87 89 90 95 100 100 100 97 99 100 97 86 97 100
100 100 100 100 100 100 100 100 100 97 94 90 68 50 47 49 50 50 47 44 41 42 44 43 46 51 61 73 67 80 100 100 98 97 98 98 100 100
100 100 100 100 100 99 96 92 46 34 37 44 48 43 37 33 30 30 31 35 40 43 44 51 50 65 69 52 62 85 98 100 94 83 94 98 100 100

GFSNE_500_rhum_093.txt.gz
RH
86 83 78 80 84 86 73 72 62 60 66 67 62 66 66 62 60 60 61 79 86 83 80 72 61 63 70 89 73 40 31 31 29 19 15 15 14 15
90 88 85 89 94 93 89 87 75 71 65 66 69 54 43 44 54 64 64 77 100 95 87 78 85 81 92 67 71 35 34 32 22 19 18 17 16 18
92 97 99 100 92 71 62 48 40 33 30 27 22 22 22 29 46 67 72 92 98 95 93 82 83 92 90 93 49 35 35 25 24 22 22 20 20 24
90 78 69 61 48 19 12 10 11 11 12 14 17 17 20 26 37 53 80 96 90 94 95 99 98 99 93 95 38 35 32 28 27 28 28 26 28 30
44 34 24 12 10 10 11 16 21 20 23 26 28 38 46 58 65 75 91 100 100 98 100 99 100 97 100 73 41 33 30 32 35 36 36 35 36 41
14 12 11 11 12 21 24 27 31 37 40 43 46 53 68 83 92 99 100 100 100 100 97 100 100 100 89 54 59 36 37 44 44 45 46 43 44 44
14 13 14 18 25 28 38 40 44 45 44 47 53 65 75 81 85 92 97 100 100 100 100 100 100 96 61 92 61 54 60 54 50 48 44 41 40 39
22 24 29 33 39 43 43 44 47 48 50 58 71 84 91 100 95 93 97 99 100 90 100 100 100 97 97 99 91 93 75 60 56 54 45 41 41 34
31 33 35 36 39 44 48 47 52 56 68 80 85 94 93 88 97 98 96 97 100 100 100 100 100 100 100 100 100 100 89 66 58 58 52 42 38 33
45 49 43 44 48 49 50 52 60 66 71 82 87 88 84 95 97 97 94 100 100 100 100 100 100 100 100 100 100 96 76 69 63 57 57 45 38 36
53 52 49 53 57 57 53 65 66 72 73 79 87 89 87 91 90 89 99 96 100 100 100 100 100 100 99 99 96 88 81 75 69 61 60 51 48 48
60 59 58 55 56 55 59 67 74 72 74 76 81 81 81 90 96 98 100 100 100 100 100 100 100 100 100 100 100 93 81 79 74 71 67 62 61 62
65 62 57 59 66 65 66 72 72 79 75 72 84 82 81 78 90 99 100 99 100 100 100 100 99 98 99 100 100 100 99 93 91 92 88 83 88 90
53 55 58 68 76 80 89 86 88 88 80 74 76 81 88 94 100 100 100 100 100 97 100 100 97 92 92 91 96 98 100 100 100 99 98 97 97 99
59 62 68 76 84 84 91 92 90 94 86 83 88 92 96 100 100 100 96 97 98 99 100 100 100 100 99 94 97 98 100 100 99 100 100 100 100 100
60 69 72 77 89 75 74 92 100 98 97 95 97 100 100 99 93 94 94 95 96 99 100 100 100 99 96 91 95 99 100 100 100 100 100 100 100 100
65 73 78 82 87 78 83 100 100 100 100 100 100 96 95 95 100 100 100 100 100 100 100 96 84 82 82 88 90 90 99 97 100 100 100 100 100 100
69 80 83 93 94 92 100 100 100 100 99 100 99 95 92 92 93 89 89 95 93 96 99 93 86 87 89 87 84 82 88 91 95 100 100 100 98 98
83 87 95 92 96 97 100 100 100 100 100 100 100 100 98 98 100 99 96 98 97 92 95 100 100 97 97 97 93 95 86 75 77 88 96 100 100 95
77 91 99 100 100 100 100 97 98 100 100 100 99 84 78 80 86 93 92 90 98 97 95 92 94 100 100 100 100 100 96 96 96 94 95 100 100 100
95 98 100 100 100 97 99 100 100 100 100 99 96 90 89 90 93 94 90 89 92 92 87 81 78 73 64 60 58 53 50 57 55 58 56 47 59 96
100 100 100 100 100 100 100 100 100 100 100 100 98 98 92 70 54 40 42 42 40 37 31 27 29 34 41 43 47 53 56 58 63 59 48 49 67 92
90 89 100 100 100 100 100 100 100 100 100 99 96 52 36 50 52 48 39 37 35 34 29 26 26 27 30 36 49 60 62 66 77 82 86 80 81 95

GFSNE_500_rhum_096.txt.gz
RH
32 39 45 45 54 78 82 84 83 76 81 82 82 76 70 67 64 57 52 47 45 49 60 67 66 94 92 84 65 64 90 80 49 29 28 22 16 14
16 16 27 45 62 72 81 78 82 86 69 58 42 29 21 18 16 14 14 15 20 28 61 77 88 97 97 94 74 92 95 71 51 32 28 17 16 15
14 14 30 61 74 82 80 71 59 45 28 13 9 9 10 11 13 16 19 22 24 37 73 97 92 99 98 98 99 98 88 70 29 31 20 19 18 18
21 20 32 62 62 59 39 19 11 10 10 10 11 12 16 20 24 29 34 42 56 63 99 97 90 96 91 97 98 100 99 30 26 26 22 22 22 22
20 24 37 34 23 12 12 13 12 10 10 14 19 25 26 30 37 44 52 64 75 82 86 99 96 100 100 100 100 97 95 54 28 26 25 27 28 26
20 14 13 13 13 14 14 13 13 17 24 29 30 30 34 38 42 50 67 82 96 100 93 100 100 100 100 100 100 100 69 49 34 30 32 35 36 34
14 13 14 15 16 15 13 15 22 30 32 32 32 34 35 44 50 61 73 85 92 100 100 100 100 100 100 100 100 99 99 66 37 37 42 45 46 48
15 14 17 16 16 19 21 28 33 31 32 32 37 42 48 60 67 75 79 88 96 97 100 100 100 100 100 100 98 96 100 61 67 66 64 67 63 52
18 16 18 20 23 30 39 39 36 36 35 36 44 49 58 67 71 78 83 94 98 92 95 93 95 100 100 100 95 96 97 93 100 98 81 72 68 64
21 20 26 28 33 42 44 41 40 36 34 42 51 59 64 73 78 85 84 86 98 100 90 100 100 98 100 100 100 100 100 100 100 98 95 78 69 62
26 26 33 37 48 50 48 47 48 38 34 48 58 60 66 70 76 83 87 89 89 96 87 93 100 100 100 100 100 100 100 100 100 97 96 81 72 61
38 40 45 49 48 49 54 54 44 45 40 55 62 66 74 76 78 81 80 89 87 80 84 89 90 93 100 100 100 100 96 93 98 99 95 84 73 63
58 53 53 56 63 62 54 49 53 59 62 74 77 72 71 73 81 86 82 82 84 93 99 96 98 100 100 100 98 95 97 100 98 96 94 87 77 71
66 61 57 49 49 51 52 58 70 77 89 89 92 85 76 78 76 74 78 82 83 89 98 99 100 100 100 100 96 92 87 86 95 100 100 98 96 93
52 43 43 49 54 58 63 70 80 84 84 94 98 96 87 84 89 87 91 98 100 96 93 94 99 100 100 96 96 98 97 87 92 93 95 94 100 100
41 44 48 51 56 60 69 73 80 86 75 89 100 99 90 88 90 91 93 95 94 96 97 96 95 93 90 93 95 99 98 88 89 95 98 98 100 100
44 48 48 51 56 64 71 78 84 84 79 99 100 99 98 98 100 100 100 100 100 98 97 98 96 95 99 93 89 86 85 86 90 91 93 95 96 99
60 53 50 54 57 64 73 78 93 94 100 100 100 100 99 100 100 98 95 92 89 88 90 91 90 90 94 93 87 86 88 85 88 86 86 88 83 85
60 54 55 59 60 72 78 91 99 100 100 100 100 100 98 99 100 99 98 94 93 95 94 94 94 91 92 92 94 96 96 97 97 95 95 96 99 88
69 63 59 64 65 71 89 98 93 100 100 96 100 100 100 100 100 95 83 82 83 84 90 91 86 90 95 94 93 85 81 86 90 93 96 97 98 99
66 68 65 73 77 80 87 98 100 94 99 100 99 97 100 100 100 100 96 92 92 91 86 60 48 52 53 51 48 41 34 29 29 32 34 37 43 53
78 83 84 88 93 98 99 100 100 99 99 100 100 100 100 100 100 100 100 94 57 45 43 44 40 36 31 29 29 27 23 23 27 37 42 47 56 64
82 92 89 93 92 99 100 100 100 100 100 100 100 100 100 100 100 98 75 42 52 54 48 41 40 36 28 28 29 26 22 21 20 22 27 30 34 41

GFSNE_500_rhum_099.txt.gz
RH
44 35 23 18 14 12 14 17 17 26 55 64 69 81 75 61 48 35 19 10 8 9 10 11 12 13 16 29 60 76 94 91 86 74 97 60 50 23
20 17 15 13 8 9 12 13 23 34 48 64 62 53 32 15 9 9 8 8 9 12 19 22 21 30 41 74 88 93 91 86 96 85 96 56 36 22
15 14 11 9 10 14 18 19 26 37 43 37 14 10 9 9 8 7 8 13 19 25 29 37 47 53 63 96 81 89 89 100 95 99 91 63 23 20
18 15 12 11 14 17 17 20 29 29 13 10 10 9 8 7 9 13 19 23 27 33 36 50 63 68 86 100 93 100 100 100 99 99 84 22 20 18
20 18 16 16 15 13 17 13 12 12 11 10 10 10 10 14 20 21 21 24 29 34 38 54 69 74 94 100 95 99 100 100 100 100 41 22 20 22
22 19 17 14 12 12 13 13 12 12 12 12 14 18 23 23 20 20 24 26 32 42 54 70 80 85 91 100 100 100 100 100 100 93 38 32 26 26
24 20 14 13 14 15 14 15 15 15 15 14 16 24 26 25 21 25 31 37 55 60 62 68 84 86 100 100 100 100 100 100 100 93 55 44 31 32
22 16 14 15 17 18 17 16 15 15 16 19 27 29 30 25 25 37 43 54 63 64 66 73 82 79 81 93 100 100 100 100 99 95 98 60 37 37
20 18 18 20 20 21 21 18 19 20 26 37 38 35 34 25 38 48 52 62 69 69 73 81 86 78 94 96 100 100 100 99 100 100 84 58 55 51
30 29 27 27 27 24 20 22 23 27 35 39 38 42 37 29 48 53 53 56 64 69 76 83 85 84 67 92 100 100 100 100 100 99 96 98 98 94
37 35 33 31 27 23 23 27 30 33 35 39 48 44 33 33 52 52 58 65 64 69 75 82 83 78 82 90 91 100 100 100 100 100 100 100 99 97
43 40 37 32 33 28 31 34 38 40 42 50 48 39 36 42 55 58 58 59 66 66 69 76 78 78 80 89 97 100 100 100 100 100 100 100 100 100
57 50 48 48 43 43 43 49 50 44 40 42 42 48 56 70 71 74 66 61 66 74 74 74 78 82 86 87 86 95 100 100 99 99 99 99 100 100
68 61 62 52 52 54 51 46 37 36 42 50 52 67 81 88 85 84 76 75 72 75 77 79 89 91 86 88 94 100 100 98 93 88 87 97 100 100
80 75 68 65 65 58 43 39 40 40 50 59 68 81 84 85 94 90 88 84 80 80 78 78 82 88 94 95 94 96 98 99 100 100 89 86 90 97
99 83 74 70 62 50 42 40 41 46 58 66 73 83 82 77 100 95 90 85 89 89 86 89 90 90 90 89 91 94 92 87 85 91 90 85 88 92
84 68 70 66 59 49 43 42 46 54 61 68 77 88 82 87 100 99 97 93 93 94 91 88 88 85 83 83 86 91 88 82 83 82 85 91 95 95
83 77 71 62 55 50 47 48 53 56 62 71 78 92 95 100 100 100 100 98 97 94 91 89 89 88 93 90 90 91 90 88 85 87 86 86 85 84
100 89 75 67 64 54 53 55 57 59 66 79 95 99 100 97 100 100 100 100 96 93 94 92 79 79 92 94 90 83 89 89 94 95 95 95 93 86
100 96 84 74 67 62 62 59 60 63 72 89 92 94 100 100 99 100 100 100 100 94 86 83 80 80 85 88 86 80 78 86 87 89 90 92 91 83
100 100 96 87 78 74 69 63 66 69 72 95 100 99 100 100 100 100 100 100 100 99 98 92 88 90 89 78 48 39 40 42 40 38 36 34 27 26
100 100 98 87 70 73 75 73 83 84 88 94 100 97 92 100 100 100 100 100 99 97 95 92 93 59 43 44 42 36 27 23 20 22 22 20 20 22
100 100 96 73 74 83 94 97 100 100 100 100 100 100 98 100 100 100 100 100 97 94 95 86 52 49 55 49 41 35 28 25 24 22 20 20 20 20

GFSNE_500_rhum_102.txt.gz
RH
94 93 92 81 59 42 28 29 20 13 10 11 12 28 34 28 27 36 37 19 9 8 7 6 9 13 16 21 23 26 29 39 81 100 91 78 65 76
85 60 47 45 40 25 22 17 14 8 10 13 16 22 30 31 25 11 9 8 7 8 8 10 14 17 23 27 36 46 47 90 88 91 88 84 86 96
44 47 36 30 20 18 15 12 11 11 14 13 15 22 16 11 10 8 8 9 10 10 12 15 20 24 28 36 52 64 72 96 89 83 90 97 100 99
40 31 23 20 20 19 18 14 13 14 12 12 12 12 12 10 10 11 11 11 13 17 16 19 23 28 41 54 61 69 79 88 99 100 100 100 100 96
25 22 22 22 21 21 19 15 15 14 12 12 13 12 12 11 11 12 12 15 21 19 17 25 31 40 54 60 70 79 75 96 96 100 96 99 100 88
26 26 27 27 24 23 22 18 16 13 13 14 14 14 14 14 14 12 13 16 20 17 24 34 48 49 48 58 76 80 85 98 100 100 99 100 98 65
36 33 32 28 25 24 24 19 14 14 16 17 18 16 15 15 12 13 19 21 21 24 36 44 51 56 55 70 78 69 83 89 99 100 100 100 54 46
39 36 32 29 27 26 22 17 15 17 19 20 21 17 16 13 14 20 23 30 22 34 40 46 60 65 65 78 77 80 81 81 96 100 100 100 97 84
36 34 33 31 28 26 22 19 19 21 24 24 21 18 16 16 21 21 26 29 27 41 43 49 59 63 71 78 82 88 73 71 96 100 100 100 89 94
35 37 36 35 32 29 26 27 27 28 27 24 20 19 21 22 22 26 33 24 28 48 49 55 58 64 72 76 76 80 76 85 100 100 100 100 100 92
44 45 46 46 42 40 37 33 33 32 28 26 30 33 30 28 33 37 30 25 33 52 54 58 63 59 66 79 79 81 89 92 98 100 100 100 100 96
64 57 50 50 46 42 44 41 39 39 34 35 38 44 41 31 31 30 29 30 52 62 62 60 64 68 72 74 76 86 92 95 97 100 100 99 100 99
98 91 75 64 58 54 50 50 44 50 49 47 48 43 38 27 31 38 47 63 76 80 70 64 73 78 81 82 86 89 91 96 92 93 99 100 100 100
100 100 100 97 95 86 75 66 59 64 61 60 53 37 32 33 46 60 69 81 89 89 80 75 81 86 84 86 84 82 83 88 96 97 93 91 90 95
99 100 100 100 100 100 100 91 79 76 79 67 45 41 43 49 61 74 81 80 92 99 94 90 90 90 93 89 84 84 85 87 91 94 95 96 96 88
95 99 100 100 100 100 100 100 99 93 81 59 48 51 53 59 69 77 85 79 97 100 99 95 92 94 94 94 92 89 88 87 87 84 85 84 86 93
99 100 99 100 100 100 100 100 100 90 69 58 52 53 56 66 74 80 84 85 99 100 100 99 98 96 90 87 89 86 85 85 85 86 86 86 89 87
98 100 100 96 100 100 100 100 91 81 64 53 53 54 59 68 77 79 91 100 100 100 100 100 98 93 90 88 89 83 85 86 85 88 87 85 81 82
100 100 100 100 100 100 100 100 96 74 62 61 57 57 61 70 81 88 95 90 89 95 100 100 100 97 93 91 87 74 84 91 90 84 87 86 86 83
100 100 100 93 98 99 100 100 99 88 73 66 60 61 66 77 93 97 95 95 97 92 100 100 100 91 90 89 83 74 74 75 76 77 80 84 79 76
99 100 100 100 100 100 100 100 100 90 75 72 65 67 79 86 100 100 91 97 100 99 100 99 95 100 99 97 87 82 82 73 62 43 40 44 49 54
100 100 100 100 97 100 100 100 100 94 85 81 80 85 85 84 99 100 97 98 100 100 100 100 100 100 97 96 92 88 61 39 41 43 37 28 23 21
100 100 100 100 98 100 98 100 100 100 100 100 100 100 100 100 100 100 100 99 100 100 100 100 100 100 99 100 90 64 47 49 46 38 34 28 25 23

GFSNE_500_rhum_108.txt.gz
RH
98 96 84 86 89 92 92 95 95 97 95 90 62 50 53 38 35 27 25 17 17 14 10 11 10 9 10 11 9 6 6 13 14 17 21 29 39 32
93 96 94 96 97 97 96 96 94 92 69 55 41 32 28 30 19 19 21 13 15 10 10 11 10 11 12 10 7 7 12 16 19 27 32 39 45 44
78 76 72 86 88 88 84 76 78 76 73 60 44 43 43 37 30 23 20 16 12 11 11 11 13 14 14 8 7 11 14 19 27 37 36 39 54 60
61 81 88 94 95 86 96 95 66 58 49 50 36 30 38 24 24 29 20 16 13 12 13 14 16 18 13 8 11 18 18 26 35 32 42 49 60 69
52 80 84 93 96 86 94 92 91 72 70 47 43 40 32 25 23 22 18 15 14 14 15 18 19 17 8 10 18 21 24 37 35 32 40 61 64 63
52 71 87 90 91 99 98 96 96 91 89 80 38 38 32 26 24 23 18 14 15 17 19 20 19 14 10 11 21 23 31 36 39 45 53 64 67 73
54 52 54 64 75 92 97 98 95 97 92 100 35 30 31 28 26 22 18 16 19 20 21 19 17 13 11 15 20 23 34 36 46 51 58 69 69 72
10 17 28 54 60 60 68 98 97 96 100 81 66 43 35 33 28 22 19 19 22 23 24 21 18 15 16 18 22 24 38 40 52 53 61 72 68 66
8 7 9 14 22 34 42 57 67 79 92 100 99 100 50 33 29 27 25 23 26 28 25 22 23 21 19 21 22 29 42 42 48 52 52 54 63 71
13 12 11 12 13 35 51 51 51 52 54 66 70 91 47 38 37 34 32 31 32 34 27 28 28 27 21 21 22 41 50 47 48 53 53 66 64 78
14 16 14 14 22 35 49 61 60 54 56 58 65 60 54 52 48 44 40 38 43 43 43 44 42 25 22 24 30 53 56 56 53 50 62 75 72 80
25 21 19 17 22 36 54 90 85 76 64 60 63 65 65 68 67 56 47 49 54 53 59 58 40 30 28 36 52 68 63 62 60 56 71 90 87 83
24 27 26 20 18 24 38 81 88 98 91 83 70 70 68 72 69 66 57 68 71 76 70 59 43 36 47 61 76 77 69 70 70 69 81 100 100 97
33 35 31 23 15 27 36 54 87 95 91 99 98 95 88 84 77 70 72 89 91 98 80 56 49 52 66 75 91 85 78 79 85 90 95 100 100 100
39 38 34 26 68 45 47 54 92 100 91 99 100 100 100 94 96 97 99 100 99 100 76 59 59 70 82 83 100 89 86 88 92 92 100 100 100 100
53 45 41 29 19 14 20 47 67 100 88 98 100 100 92 100 100 100 100 100 100 99 68 63 68 79 84 86 97 93 92 95 96 98 100 100 100 95
63 54 44 34 23 32 100 100 70 90 99 100 100 100 100 100 100 100 100 100 100 94 66 65 71 80 87 88 98 100 95 96 98 99 100 100 97 92
63 52 44 35 23 18 55 72 67 97 100 100 100 100 100 100 100 100 100 100 100 87 66 65 73 82 91 96 97 99 100 99 98 95 95 91 85 82
62 50 39 29 25 24 25 100 100 96 100 100 100 100 100 100 100 100 99 99 97 88 64 64 78 81 93 100 96 87 100 100 98 92 88 86 81 77
58 44 36 30 28 29 35 54 91 71 100 100 98 100 100 100 100 100 94 99 96 91 72 70 82 81 97 100 100 94 87 96 100 98 88 76 79 79
53 39 34 32 33 43 33 38 35 83 91 100 100 100 100 100 100 99 96 99 94 96 82 86 72 80 97 100 100 97 92 93 96 100 92 85 84 79
57 34 29 30 50 57 75 80 91 91 49 81 100 100 100 100 100 97 94 100 100 99 96 75 81 100 100 100 99 100 100 100 100 100 99 97 95 87
54 38 30 46 61 66 100 100 100 100 100 100 100 100 100 98 94 95 97 100 98 100 100 95 94 100 100 100 100 100 100 100 100 100 100 100 100 95

GFSNE_500_rhum_111.txt.gz
RH
90 96 85 86 96 96 91 82 99 96 98 97 95 95 88 69 65 45 48 44 33 26 18 22 14 16 11 10 10 10 12 14 12 7 7 12 14 21
95 94 79 90 96 95 86 77 81 88 82 93 97 94 93 91 91 68 45 41 43 36 31 22 18 14 12 11 12 15 17 15 9 7 10 13 18 18
76 88 89 82 90 83 78 78 84 92 80 94 95 92 89 86 73 60 45 66 47 36 23 22 18 14 12 13 16 19 17 11 7 10 12 15 22 23
61 55 62 81 91 97 89 92 96 99 95 90 84 72 77 82 77 57 39 32 34 26 22 22 16 13 14 15 18 20 16 9 9 12 14 19 25 31
60 59 59 57 66 82 80 96 96 97 98 96 98 92 89 82 77 66 36 24 32 28 24 21 16 14 15 17 20 20 15 9 10 17 17 24 30 40
36 39 42 48 55 63 68 71 97 97 96 97 98 99 98 97 97 97 82 48 45 48 28 28 34 22 16 20 20 18 13 10 12 17 19 28 33 46
6 5 5 5 6 17 32 48 66 86 98 99 98 98 99 99 99 98 98 96 54 72 37 68 30 20 19 22 21 18 14 12 14 17 21 32 36 45
9 10 9 9 9 8 7 6 15 32 44 56 90 99 100 100 99 98 96 97 90 62 92 89 41 22 25 26 22 18 16 15 16 18 28 33 36 46
8 11 10 10 11 12 12 11 9 10 23 37 35 53 64 95 100 100 99 100 99 79 77 51 44 33 30 30 26 23 20 17 17 20 33 34 35 40
13 14 14 14 12 11 12 13 14 14 24 32 42 59 61 78 91 97 97 91 96 98 73 63 58 40 44 35 34 33 22 19 20 24 37 39 37 37
10 10 11 13 14 19 17 16 17 20 24 53 59 56 57 54 55 56 62 67 80 84 83 64 79 71 46 42 41 34 23 24 24 39 42 46 44 47
7 12 14 15 14 14 17 23 25 28 52 92 86 94 78 74 63 62 61 63 60 66 84 96 84 69 59 54 54 32 29 30 42 54 48 52 53 64
6 7 7 8 14 16 28 33 54 63 52 59 85 99 100 98 93 78 65 56 69 77 80 82 83 73 78 73 50 38 38 45 63 64 60 59 64 76
9 12 28 49 47 46 51 45 57 49 68 70 79 87 100 100 98 93 85 73 77 78 89 95 89 90 97 92 51 50 59 63 74 73 76 76 79 89
10 12 28 52 64 60 55 50 40 72 74 49 71 99 100 100 91 91 96 100 100 97 98 99 97 100 100 85 62 71 72 73 84 85 94 96 94 95
13 17 42 66 84 85 74 61 48 44 56 44 96 100 100 100 95 98 98 100 100 100 100 100 100 100 98 74 73 78 79 82 93 95 100 98 93 98
15 26 52 74 82 79 70 57 42 98 100 100 100 98 97 90 96 100 100 100 100 100 100 100 100 100 94 70 77 83 86 90 100 100 100 100 98 100
23 49 76 81 78 71 60 50 36 40 75 42 94 99 100 100 99 99 100 100 100 100 100 100 100 99 92 72 80 89 93 94 100 100 100 100 100 99
47 78 84 78 70 57 49 42 36 24 35 100 100 100 97 95 100 100 100 100 100 100 100 100 100 95 88 74 84 91 91 98 95 100 100 100 100 99
61 78 83 75 65 57 46 41 35 28 40 100 94 98 100 100 100 100 100 100 100 100 100 97 98 100 93 80 87 87 88 100 98 90 85 99 100 100
73 75 82 74 60 49 44 36 32 28 23 20 40 70 87 94 100 100 100 100 100 100 100 100 97 86 89 90 94 86 96 100 100 100 87 88 95 92
69 72 78 74 60 47 36 35 31 30 30 26 38 98 90 82 93 100 100 100 100 100 95 86 88 100 98 100 91 89 98 100 100 100 100 95 98 100
64 71 82 76 61 45 30 32 31 37 33 28 28 30 73 95 100 99 100 100 100 99 79 90 100 100 100 99 97 100 100 100 95 95 94 100 100 98

GFSNE_500_rhum_114.txt.gz
RH
97 97 90 81 94 98 95 88 81 87 82 90 80 75 98 99 98 98 98 100 96 65 46 65 50 46 55 45 23 17 16 12 11 12 13 14 14 12
93 86 76 80 93 100 94 94 96 97 91 87 81 80 93 100 92 99 99 98 95 90 90 90 64 72 83 44 21 18 14 13 14 16 16 15 14 10
67 80 85 94 96 95 96 97 96 97 90 91 82 87 92 96 95 89 89 89 97 95 91 85 82 78 44 31 22 20 14 14 17 19 18 16 14 10
73 77 79 80 76 68 64 61 63 77 96 96 98 92 98 98 90 99 95 93 93 96 96 94 74 44 25 37 24 17 14 16 18 20 19 15 14 10
6 7 7 10 12 15 17 29 34 47 61 74 79 96 98 98 97 98 97 94 94 94 93 90 88 66 29 47 77 58 78 82 20 19 19 15 12 11
6 6 6 6 6 7 7 6 6 5 9 22 38 48 52 94 98 98 98 99 99 96 98 98 97 97 92 70 84 65 84 43 21 21 19 14 12 12
6 6 6 6 6 7 7 8 8 9 9 8 6 6 21 42 69 92 97 98 98 99 99 100 97 98 98 98 91 97 62 27 24 26 19 16 13 14
10 9 9 10 10 11 11 11 12 13 12 11 10 10 8 9 53 78 64 100 98 98 100 98 97 94 98 98 95 94 76 45 34 34 20 16 14 16
14 14 14 15 15 14 12 11 9 9 11 13 12 11 11 15 16 41 75 91 99 100 99 96 97 95 96 81 71 68 76 40 57 33 22 17 16 19
14 13 13 15 15 12 9 7 7 8 12 16 15 16 16 20 38 23 64 65 70 74 99 98 80 60 65 87 85 65 57 62 49 31 23 17 19 24
13 12 12 11 8 4 3 4 8 15 22 26 29 29 39 42 97 92 99 100 100 100 100 71 61 63 69 78 77 69 82 63 48 36 23 20 21 34
9 10 10 6 3 2 3 3 4 8 15 24 20 24 100 29 28 46 93 94 89 83 74 66 67 64 67 72 85 93 95 81 56 34 26 25 28 51
10 10 8 3 2 3 5 7 10 18 36 60 79 79 77 94 96 48 95 95 98 100 84 71 71 72 82 83 87 93 88 76 55 40 31 34 45 62
10 9 5 2 2 4 9 12 26 44 53 57 59 49 86 100 99 96 100 99 100 97 90 85 82 84 92 86 92 100 95 91 69 44 44 54 67 68
10 6 2 2 4 5 13 16 30 54 65 66 62 100 69 74 100 100 95 78 100 98 93 100 100 94 97 93 95 97 100 98 66 60 65 78 77 85
6 2 2 4 6 13 17 47 78 80 78 68 60 60 77 100 93 81 100 87 100 100 100 100 100 100 100 100 98 100 100 89 75 76 78 88 89 97
4 2 3 7 13 21 46 74 84 86 81 60 46 53 50 79 55 58 81 77 100 100 100 99 100 100 100 100 100 100 99 82 83 84 84 96 96 98
2 3 6 12 19 47 71 72 75 79 75 58 42 40 72 99 94 97 99 77 100 89 100 100 100 100 99 100 100 100 92 86 94 89 91 99 97 97
2 4 10 19 35 69 72 73 74 72 66 61 45 82 100 100 99 89 100 100 100 98 100 100 100 100 100 96 100 100 92 96 97 94 92 96 91 100
3 6 14 24 56 71 72 73 69 61 53 49 43 35 84 98 69 74 94 96 100 100 95 99 100 100 100 100 100 95 92 96 100 97 97 98 99 95
4 6 14 26 58 78 74 70 68 62 59 48 39 34 27 95 100 100 100 100 97 100 100 100 100 96 96 100 100 100 99 100 100 100 100 100 100 95
7 8 14 30 65 77 75 70 60 56 46 38 36 39 34 74 100 100 98 100 100 100 100 95 94 100 100 100 100 93 96 100 100 100 100 97 100 100
10 10 13 36 70 85 78 69 58 43 38 34 36 36 33 38 75 92 74 64 97 100 100 93 100 99 96 100 100 94 100 100 100 100 100 96 85 87

GFSNE_500_rhum_117.txt.gz
RH
97 96 98 98 97 96 97 96 96 88 88 94 96 97 96 97 97 96 95 92 97 100 99 85 98 100 94 73 60 80 70 71 44 25 20 19 16 29
97 96 97 96 92 96 92 94 93 92 75 67 72 88 91 92 94 95 97 91 91 97 93 88 90 98 97 90 92 88 74 69 34 27 19 14 18 31
97 85 68 60 63 67 71 74 62 53 54 48 48 38 26 28 47 74 81 97 98 97 98 98 92 84 95 100 95 92 87 61 43 29 18 24 36 55
64 42 18 6 5 4 5 5 5 5 5 5 5 6 12 21 38 41 44 44 64 94 98 99 98 100 98 100 95 95 96 78 34 41 59 66 79 60
5 5 5 5 5 6 6 6 6 6 6 6 7 7 7 7 7 7 10 26 58 70 90 98 98 98 97 97 100 97 99 92 75 57 71 82 58 30
6 6 7 8 9 10 10 11 12 12 12 12 12 12 12 12 10 9 8 9 13 17 52 76 96 98 97 95 96 96 96 96 88 78 87 81 27 25
11 12 13 14 14 14 14 14 13 13 13 14 14 14 13 13 12 11 10 10 10 14 61 96 100 84 90 88 92 98 83 90 87 87 84 60 48 37
14 15 15 16 15 14 13 12 11 11 11 12 11 9 7 5 6 8 12 19 13 13 76 100 99 80 98 97 98 95 92 84 75 59 69 74 48 47
18 18 19 20 20 20 17 15 13 12 10 9 8 5 3 4 11 17 20 100 53 31 56 71 99 96 100 92 93 99 89 85 71 65 68 64 48 55
21 22 23 24 27 25 21 18 14 11 10 8 5 2 2 4 12 32 54 64 88 77 99 100 100 100 99 89 99 96 69 58 50 67 62 59 64 36
28 29 30 28 28 26 23 19 13 10 8 5 2 2 2 4 35 100 61 47 76 92 68 98 95 86 95 99 92 69 55 49 48 66 67 78 58 36
33 29 26 26 28 25 20 14 10 8 5 2 2 4 5 10 14 34 98 100 100 100 100 100 100 100 100 95 75 63 63 67 72 80 89 80 65 32
31 33 33 32 32 27 17 11 8 5 2 2 4 7 12 27 35 59 63 76 80 87 52 98 74 49 71 90 76 72 70 81 77 80 82 73 50 40
42 39 37 33 31 20 12 8 4 2 2 5 9 14 24 54 60 56 99 100 100 100 73 35 51 77 100 100 96 86 87 90 86 84 87 75 73 50
45 43 38 36 24 14 8 4 2 3 6 11 17 38 66 70 67 52 67 74 77 100 100 100 100 100 100 100 100 100 93 94 88 95 98 97 79 63
48 41 42 29 18 11 5 2 3 7 15 28 64 79 69 64 68 77 100 100 97 100 100 100 100 99 99 100 100 100 95 99 96 95 100 99 85 72
44 43 36 21 13 6 2 2 6 16 32 70 88 79 69 62 83 75 100 95 90 100 100 100 100 98 100 100 99 100 100 100 99 100 100 97 92 85
47 43 24 14 9 3 2 5 16 33 66 83 87 83 65 56 83 66 60 100 100 99 100 98 100 100 100 85 100 100 100 100 100 100 100 100 95 96
48 28 15 9 4 2 4 10 28 62 75 75 82 73 65 56 94 95 100 99 58 57 85 87 100 98 100 100 100 100 100 100 100 100 100 100 98 100
32 16 10 5 3 4 5 16 47 71 74 74 75 76 68 53 42 50 100 100 100 97 85 77 99 100 100 100 100 100 100 100 100 100 100 100 100 100
16 8 5 4 3 5 7 22 61 74 75 72 65 60 58 57 60 98 100 100 100 100 100 100 100 100 100 98 99 100 100 100 100 100 100 100 100 100
9 5 4 3 4 6 9 30 72 76 72 70 62 52 46 41 37 86 100 97 96 100 93 92 94 74 100 100 100 100 100 100 100 100 100 100 100 100
5 4 4 5 6 8 13 38 76 79 74 60 51 50 43 43 41 79 100 100 100 100 100 100 100 100 100 100 100 100 100 100 100 100 100 100 100 100

GFSNE_500_rhum_120.txt.gz
RH
96 98 96 95 98 99 97 97 96 80 53 43 42 70 58 46 49 43 34 22 30 39 42 75 47 84 94 99 98 92 94 97 90 78 65 73 54 25
97 97 98 98 97 94 68 52 39 18 11 16 13 12 14 12 9 8 15 13 12 14 19 34 42 46 48 81 97 97 99 96 96 98 96 89 66 35
98 97 96 90 69 39 23 9 8 6 5 5 5 5 5 5 6 6 6 6 6 6 6 5 5 9 26 51 54 72 71 98 97 98 99 96 80 51
95 77 37 29 20 6 5 5 6 7 8 8 9 10 10 10 11 10 11 11 11 11 11 10 9 8 6 6 17 70 68 87 100 97 97 96 79 67
33 18 6 6 6 7 8 9 11 12 12 11 10 9 10 11 11 11 12 12 11 11 11 11 11 11 10 9 11 42 97 74 91 91 87 92 84 76
6 7 8 10 12 12 14 15 16 15 14 14 14 14 15 14 14 13 12 11 10 8 8 7 7 8 10 17 26 62 81 89 92 78 68 92 97 93
11 13 14 15 17 18 19 20 20 20 22 24 26 25 23 22 19 16 14 11 8 7 5 5 28 12 29 91 90 70 98 97 65 66 78 73 86 70
16 16 16 17 18 21 22 25 28 29 28 30 30 29 28 26 22 17 13 10 7 4 5 18 13 32 100 82 98 96 100 99 96 99 88 86 71 43
17 17 20 24 26 26 29 32 33 31 29 26 26 28 29 26 20 14 9 6 4 3 3 11 51 41 97 99 90 96 98 100 100 96 88 62 58 58
24 27 28 31 35 36 36 36 36 40 39 36 32 29 29 23 14 9 5 3 3 13 87 48 55 44 73 91 90 59 95 98 100 92 85 66 64 67
31 30 34 37 40 41 41 39 37 36 35 34 32 29 19 11 6 4 3 2 2 4 13 80 100 93 100 77 75 93 80 80 100 92 64 58 61 62
35 36 40 40 40 37 31 34 34 35 34 33 29 17 8 4 4 2 3 23 90 80 92 100 96 83 86 100 95 77 93 96 92 81 58 58 68 68
40 45 46 45 46 42 41 39 38 36 34 30 20 8 4 3 2 4 7 72 51 74 45 64 90 100 100 100 100 100 96 83 86 67 71 74 77 85
49 45 42 43 42 40 40 41 39 39 31 19 7 5 3 2 4 8 15 57 48 100 79 100 75 100 100 100 100 100 96 100 92 89 85 82 88 92
50 45 41 42 42 43 44 44 43 32 18 7 5 3 2 6 12 19 100 70 99 89 100 100 100 100 91 92 99 100 84 100 99 95 100 91 97 100
54 49 48 51 49 48 45 44 32 18 9 4 3 3 7 13 28 52 95 67 73 100 97 100 59 58 98 98 77 77 100 100 100 100 100 100 100 100
52 56 60 58 54 50 46 32 14 6 4 3 3 8 16 40 59 71 99 100 100 90 100 100 97 100 100 99 90 100 100 97 95 99 100 100 100 100
53 56 56 50 49 49 34 16 6 4 4 3 6 17 50 72 79 77 69 100 100 92 100 92 99 100 100 100 100 100 100 89 95 100 100 100 100 100
57 59 54 50 51 42 22 9 5 4 3 4 14 42 73 84 88 75 63 100 100 99 100 91 100 100 100 100 100 100 100 94 100 100 100 100 100 100
60 60 57 54 51 27 12 6 4 3 4 11 35 61 74 81 83 76 74 99 90 99 99 100 99 100 100 100 100 100 100 100 100 100 100 100 100 100
70 67 63 61 38 14 6 4 4 4 7 23 50 71 74 77 82 76 59 67 96 100 100 91 70 70 93 97 100 98 100 100 100 100 100 100 100 100
80 78 74 56 20 7 4 4 4 5 14 38 65 75 75 71 56 64 67 64 99 100 100 100 100 84 85 80 100 100 100 100 100 100 100 100 100 100
90 88 75 33 8 4 4 4 5 8 25 62 75 74 69 67 52 44 65 91 100 99 100 100 100 81 61 90 99 92 99 100 100 100 100 100 100 100

GFSNE_500_rhum_123.txt.gz
RH
23 77 74 84 97 87 97 96 94 88 96 86 54 49 54 32 16 13 6 4 4 4 5 5 5 6 6 7 6 6 6 15 33 36 59 42 54 84
90 100 95 97 96 95 94 96 93 84 54 48 38 16 6 5 6 6 6 7 7 8 8 9 9 8 8 8 8 8 8 8 7 22 32 41 46 47
97 99 98 97 97 98 96 88 58 42 28 10 6 8 9 10 10 9 9 9 9 10 10 10 10 9 9 9 8 8 8 8 9 9 11 28 28 54
100 99 97 96 65 59 55 42 25 12 9 8 9 11 12 14 15 14 16 18 19 18 17 15 14 13 13 11 10 9 8 8 7 8 12 16 32 46
92 88 86 66 42 20 7 8 11 15 17 16 15 15 16 18 20 23 25 25 26 28 27 26 23 21 16 11 9 8 8 7 8 10 27 30 23 72
33 21 10 7 9 11 13 15 16 18 19 20 20 22 25 26 27 24 23 25 26 28 29 29 25 19 16 9 7 7 14 16 16 19 55 71 79 40
9 10 11 14 16 15 16 16 18 24 26 30 32 33 34 34 35 35 35 35 34 34 33 32 24 21 14 8 6 7 83 93 81 77 86 99 98 99
13 16 18 17 16 17 21 26 29 33 34 38 38 36 36 37 36 33 33 34 32 33 30 26 16 10 6 4 4 5 16 68 88 87 36 100 100 100
19 18 19 22 25 27 30 34 35 39 39 38 39 39 37 38 36 37 37 35 34 31 26 20 8 4 4 3 7 100 55 100 100 100 99 97 90 100
23 30 34 34 35 33 31 33 41 45 46 44 42 38 35 34 33 34 33 32 29 24 9 7 5 4 2 5 8 66 94 100 96 54 50 95 97 100
39 38 37 34 31 30 31 38 45 41 39 38 39 37 35 35 35 33 33 30 21 9 5 4 3 2 3 78 100 100 90 80 55 99 97 91 90 100
36 36 35 36 36 37 41 44 44 41 41 43 41 38 35 35 35 33 27 13 6 6 3 3 4 26 70 27 99 84 69 100 96 100 100 100 100 100
37 37 37 37 50 51 47 47 45 39 37 34 34 35 35 35 32 20 8 7 5 2 3 6 41 61 60 94 58 100 100 100 100 93 99 100 100 92
38 37 36 41 56 54 47 42 38 34 30 32 34 36 36 33 19 8 6 4 3 4 7 40 71 76 72 100 100 100 93 87 87 100 71 100 99 96
36 36 41 55 56 52 46 43 40 37 36 40 40 40 36 19 7 5 4 2 6 35 48 62 78 100 100 77 95 99 100 100 100 100 100 100 92 100
38 46 57 58 56 54 51 46 42 38 40 45 46 38 20 6 5 4 3 7 25 99 61 98 100 100 87 100 76 54 100 100 100 100 100 89 99 100
62 73 69 64 61 54 47 48 47 48 52 51 43 23 8 5 4 4 10 19 25 54 58 84 80 92 100 100 90 90 100 96 100 93 99 98 100 98
89 84 77 74 63 51 48 53 62 64 60 51 26 10 5 4 3 9 24 39 56 92 89 82 91 100 100 99 84 91 94 99 100 98 100 100 100 100
77 76 70 58 51 49 51 64 71 70 61 37 11 6 4 3 8 25 51 65 66 79 100 100 75 100 100 100 100 100 100 72 77 100 100 100 100 95
54 52 50 55 59 67 83 83 80 72 46 14 6 4 4 5 26 51 70 79 79 67 100 86 100 84 99 100 100 99 77 99 100 100 100 100 96 100
55 58 65 68 86 90 92 90 81 52 18 6 4 4 5 18 51 65 74 80 80 76 93 100 98 82 100 100 100 100 99 100 100 100 100 96 100 98
54 64 79 92 89 96 98 96 60 19 6 4 4 5 13 38 67 72 74 76 75 66 83 100 95 95 95 97 100 100 100 100 100 100 100 100 100 99
80 94 92 100 97 100 100 69 18 5 4 4 5 13 30 58 69 72 68 67 70 66 95 100 92 95 90 92 96 100 100 100 100 96 100 100 100 100

GFSNE_500_rhum_126.txt.gz
RH
58 58 54 53 48 32 76 75 80 76 98 98 98 96 93 77 64 33 20 6 5 6 6 7 8 8 9 9 9 9 9 9 8 8 7 8 8 8
62 57 49 37 33 90 95 82 91 94 88 93 88 70 41 30 18 8 11 9 10 11 10 11 12 13 14 14 13 12 11 11 11 11 11 9 8 8
36 40 48 96 98 97 97 93 94 100 81 50 52 34 12 8 9 11 13 13 11 12 14 16 16 16 19 20 21 21 21 21 18 16 14 12 10 9
77 96 96 95 95 99 97 89 51 41 23 10 10 14 16 17 16 17 17 19 23 26 26 26 25 25 26 27 29 29 28 28 25 19 14 11 9 8
100 98 97 96 94 91 85 56 30 10 10 14 14 15 17 19 22 27 32 35 36 33 32 32 34 37 35 35 37 36 35 33 27 18 14 10 9 8
94 75 64 43 18 13 10 10 13 15 16 15 17 21 25 27 29 36 35 32 29 30 31 32 36 37 36 38 39 38 35 29 20 15 10 9 8 8
26 19 10 10 11 14 18 20 20 20 22 26 28 28 24 28 39 35 35 32 31 31 33 37 37 38 38 39 37 33 26 17 12 10 8 7 9 42
11 13 14 17 21 22 27 32 30 28 31 29 28 26 29 40 37 34 31 32 28 32 32 32 39 38 37 33 28 22 16 7 5 4 4 5 81 78
18 19 20 21 25 28 31 33 33 32 29 26 29 37 36 41 40 40 36 33 28 29 29 25 30 28 30 26 18 10 6 5 4 3 13 4 9 20
19 19 20 24 28 31 34 35 32 30 30 44 46 45 41 43 43 35 29 28 28 32 32 26 27 26 24 19 11 8 5 3 4 4 5 49 98 93
20 21 24 27 31 37 37 34 36 38 45 53 53 50 45 41 37 33 31 29 28 31 33 29 28 24 16 10 6 4 2 8 36 68 100 100 100 100
22 26 30 32 35 35 36 37 36 37 40 53 56 50 46 42 38 36 32 28 30 34 36 30 20 12 10 5 3 4 12 93 100 89 95 100 82 92
22 26 31 37 40 41 39 37 35 34 42 50 56 56 49 40 35 34 35 36 38 38 32 22 12 8 4 2 13 46 62 97 100 100 100 100 96 88
24 29 34 37 38 39 38 37 37 44 52 61 60 56 48 40 35 35 44 46 42 35 19 10 7 4 4 40 37 52 98 97 89 100 97 76 86 98
31 34 38 38 41 44 46 49 56 63 69 68 63 57 49 38 32 42 50 47 35 17 9 6 3 6 21 73 97 92 100 100 100 94 100 97 100 87
40 44 51 57 60 61 62 51 38 42 55 58 51 39 33 37 53 60 52 36 14 7 6 4 8 17 48 79 91 95 88 100 100 86 88 94 95 100
38 40 40 37 37 39 39 38 33 35 33 32 40 45 57 71 72 59 30 9 5 5 5 9 22 28 69 74 97 82 99 99 100 100 87 95 88 100
40 40 39 36 30 27 27 26 23 20 20 23 52 67 80 76 61 26 7 4 5 6 13 27 41 67 68 90 92 85 100 100 100 100 100 100 100 100
40 41 40 42 42 36 34 31 34 37 51 69 77 87 86 77 28 7 4 5 11 26 36 50 75 60 75 93 100 100 84 76 71 100 100 100 100 100
44 44 44 42 39 39 39 40 60 81 84 96 97 97 76 16 5 4 6 14 35 63 65 53 74 54 64 90 100 99 95 71 67 86 98 93 88 93
47 44 41 43 46 48 56 82 87 94 97 100 100 77 14 4 4 6 18 40 61 73 72 55 71 71 75 90 100 92 80 87 96 99 99 92 100 100
47 45 51 60 57 67 85 88 95 94 98 100 77 24 5 5 7 20 42 63 74 76 69 70 70 85 95 100 100 100 100 100 98 98 94 100 100 98
55 68 70 73 84 89 94 100 100 97 96 80 17 5 5 9 21 44 65 72 72 75 66 63 84 90 86 96 100 100 100 100 100 100 100 100 100 100

GFSNE_500_rhum_129.txt.gz
RH
15 15 31 71 73 68 66 80 99 52 44 98 86 75 82 76 87 98 92 89 46 25 6 6 7 8 9 10 12 13 15 16 17 16 16 14 14 13
14 25 58 72 73 73 98 95 87 47 74 100 88 89 91 84 63 47 37 32 16 10 11 12 12 13 16 18 18 18 19 18 18 19 20 21 21 21
49 65 70 78 89 51 48 50 98 91 100 97 96 97 75 53 40 24 13 13 14 16 18 20 24 28 31 31 29 28 28 28 27 27 27 28 29 28
56 97 97 99 80 75 76 99 100 98 95 73 88 64 56 42 17 11 17 20 22 23 26 32 36 37 33 29 24 24 23 24 28 33 36 37 37 36
75 98 99 100 100 98 98 98 98 96 82 57 44 22 10 13 16 18 22 25 28 30 40 43 39 35 35 34 30 30 33 35 36 39 41 40 40 41
98 98 96 99 95 91 74 61 43 36 22 12 14 18 20 24 23 23 25 25 25 38 40 35 33 33 32 32 30 29 28 31 33 35 40 41 41 39
98 96 86 52 19 13 13 15 19 22 22 23 28 30 31 30 27 27 25 27 32 36 37 43 42 40 32 28 26 27 28 29 33 35 35 34 29 24
81 51 22 14 16 21 26 25 25 30 36 36 35 32 30 27 26 25 27 29 32 42 40 37 36 32 30 29 29 28 28 28 29 30 26 20 14 9
15 17 19 22 22 22 22 24 30 34 38 39 37 34 31 28 26 27 28 30 35 38 38 35 36 32 29 28 27 28 30 30 30 27 20 12 9 7
18 19 19 19 20 21 23 28 29 33 34 32 33 32 31 30 30 29 29 32 41 48 47 39 38 33 28 26 26 28 32 32 26 19 13 9 6 3
17 17 18 19 21 23 26 28 32 34 36 36 35 35 34 33 33 33 40 51 56 56 56 43 40 34 30 28 32 36 33 27 19 11 6 4 3 5
15 16 18 18 20 23 25 28 32 36 41 40 38 37 36 41 51 51 47 40 38 39 52 44 41 31 29 40 39 31 21 15 8 4 3 6 20 20
19 19 19 19 20 23 26 30 34 37 38 39 43 53 58 51 32 18 13 11 11 13 20 24 32 41 49 46 23 13 10 5 3 7 65 80 64 96
28 30 32 34 35 37 38 38 38 37 36 34 30 28 26 18 14 12 9 9 8 8 25 42 49 56 37 15 10 7 4 8 30 33 100 91 98 93
35 35 34 32 28 25 22 21 21 20 20 21 22 20 19 18 14 13 12 13 31 40 49 68 51 19 12 6 5 5 37 60 94 79 91 96 90 96
16 16 16 17 18 20 22 23 23 25 29 29 29 28 25 19 16 15 21 32 67 76 72 44 22 8 5 5 8 29 60 69 91 100 91 95 100 99
24 24 26 28 31 33 37 39 40 42 38 35 33 28 24 23 27 34 57 79 88 89 63 17 6 6 8 12 22 63 96 95 94 100 79 97 100 100
32 32 33 35 39 45 47 48 48 43 39 38 40 39 38 52 74 83 88 91 88 30 5 5 9 15 23 32 39 66 99 100 100 100 100 80 94 100
32 34 38 40 43 47 49 49 44 42 42 46 46 44 70 82 92 97 100 74 16 6 5 14 27 27 57 63 70 79 90 100 98 100 100 100 100 87
40 46 49 49 49 51 49 46 45 48 57 55 65 88 96 99 99 97 54 13 5 7 17 40 51 43 72 73 85 100 100 100 97 100 100 100 100 100
69 67 61 57 58 53 52 59 66 75 79 92 99 99 100 99 90 41 7 6 11 26 54 72 72 61 79 75 78 96 100 100 86 100 100 100 100 100
85 84 77 66 57 72 81 85 96 87 92 100 100 100 100 83 23 7 8 15 31 62 71 72 69 56 84 90 84 100 100 100 100 100 100 100 99 100
100 85 75 90 100 99 96 94 96 100 100 100 100 98 58 12 8 9 20 40 67 71 77 76 75 70 85 95 100 100 100 100 100 98 100 100 88 100

GFSNE_500_rhum_135.txt.gz
RH
26 57 77 98 97 96 93 78 65 55 40 32 28 24 34 46 68 70 90 97 72 76 94 90 98 94 91 100 92 76 58 40 12 10 13 12 12 17
46 42 62 67 66 71 75 68 56 46 39 32 24 35 61 66 81 99 95 97 83 94 98 92 87 77 82 71 54 23 11 12 15 18 20 24 29 33
75 79 78 86 88 86 60 49 46 45 28 19 27 60 82 94 95 89 93 98 99 100 97 82 72 61 63 51 14 10 15 19 21 25 32 39 41 39
51 63 45 42 43 37 34 37 32 19 26 50 80 91 97 100 84 98 99 97 98 98 97 82 64 31 14 14 19 21 27 30 29 30 37 42 42 38
27 32 44 42 35 35 34 25 18 46 99 98 97 100 98 98 98 97 95 98 99 96 94 70 46 22 24 29 31 32 31 31 39 39 40 41 41 40
27 26 22 20 23 24 25 43 94 98 98 100 99 99 97 97 99 98 96 90 44 41 40 35 33 40 37 33 32 31 29 26 26 24 24 26 29 30
44 47 41 62 96 99 90 86 100 98 92 64 54 68 72 65 51 42 42 36 34 38 42 44 41 40 37 34 29 27 25 23 22 22 22 21 21 23
91 94 98 92 98 88 76 79 72 64 42 24 23 26 27 27 27 29 30 32 40 48 37 45 38 38 36 33 30 29 29 30 28 27 26 25 23 21
45 36 49 47 49 45 32 21 19 21 22 25 26 27 26 25 24 25 27 28 30 33 34 35 38 37 35 34 32 32 34 37 31 18 8 6 5 4
16 17 17 18 19 19 19 20 20 20 20 20 20 21 21 20 20 20 20 21 23 26 24 22 29 32 35 37 36 27 16 11 8 7 7 6 5 4
17 17 17 16 16 16 15 15 16 18 19 20 21 22 25 27 29 31 31 32 33 35 38 35 36 33 27 19 15 14 13 10 9 8 7 6 5 4
16 18 20 22 24 25 28 29 30 31 32 31 30 29 30 28 22 18 16 16 15 16 21 18 20 20 18 22 22 20 16 11 8 6 5 5 5 5
29 30 31 29 27 26 25 23 18 15 14 15 16 16 18 21 23 26 28 28 28 26 27 28 26 26 23 19 25 20 11 8 7 6 6 12 32 55
26 25 22 20 17 16 16 17 20 22 23 25 27 28 29 28 28 31 33 34 33 32 33 32 31 29 27 22 15 19 15 14 20 54 73 75 66 36
15 15 16 18 20 24 27 31 36 40 42 40 38 37 38 40 41 42 44 43 43 42 39 37 38 35 34 27 24 48 70 87 81 88 64 16 6 5
22 26 31 35 56 89 57 48 43 34 27 20 19 23 33 48 55 57 59 56 52 50 49 46 43 39 56 70 85 91 97 92 59 22 6 7 17 38
43 41 42 68 95 65 41 28 17 10 8 9 12 29 58 83 83 70 62 58 59 62 70 68 73 93 99 96 94 93 63 36 9 7 13 39 70 88
56 74 99 77 35 19 9 7 7 9 12 26 51 74 82 78 70 71 76 73 81 82 87 93 99 100 100 93 66 43 22 14 14 20 64 73 75 99
100 90 45 18 8 7 8 9 13 22 55 68 74 78 79 86 92 91 93 92 95 94 95 100 100 93 53 23 14 19 22 23 23 59 100 93 70 90
46 21 10 7 7 9 12 16 32 49 57 62 68 75 78 90 95 94 92 93 95 99 98 84 30 9 8 15 29 31 46 51 50 86 100 99 85 100
13 8 8 8 10 16 20 38 47 54 59 70 83 84 88 93 97 97 98 97 99 87 44 10 9 16 28 42 50 46 77 85 82 94 100 100 100 100
9 8 8 12 22 30 43 47 56 70 76 83 88 90 91 94 100 99 97 94 53 13 9 11 18 33 52 71 65 70 94 99 98 96 100 100 100 100
10 10 12 25 33 44 52 58 67 75 80 86 86 87 91 96 95 96 73 22 8 9 12 25 41 62 68 77 67 97 100 99 100 100 100 100 100 100